Back to Previous

Regional Weather Roundup

356 
ASUS44 KLZK 231405
RWRLZK

WEATHER ROUNDUP FOR ARKANSAS
NATIONAL WEATHER SERVICE LITTLE ROCK AR
800 AM CST SUN NOV 23 2014

NOTE: "FAIR" INDICATES FEW OR NO CLOUDS BELOW 12,000 FEET WITH NO
SIGNIFICANT WEATHER AND/OR OBSTRUCTIONS TO VISIBILITY.

ARZ001-003-010-029-231500-
NORTHWEST ARKANSAS
  
CITY           SKY/WX    TMP DP  RH WIND       PRES   REMARKS
FAYETTEVILLE   CLOUDY    56  54  93 S9        29.57S                  
FORT SMITH     CLOUDY    56  54  93 NE5       29.58S                  
HARRISON       CLOUDY    54  54 100 SE7       29.58F                  
BENTONVILLE    CLOUDY    55  52  88 S7        29.58F                  
ROGERS         CLOUDY    56  53  90 SE9       29.58F                  
SILOAM SPGS    CLOUDY    57  52  82 S9        29.57F                  
HIGHFILL       CLOUDY    57  55  93 S9        29.56F                  
$$

ARZ004-005-016-231500-
NORTH CENTRAL ARKANSAS
  
CITY           SKY/WX    TMP DP  RH WIND       PRES   REMARKS
BATESVILLE     CLOUDY    57  55  94 SE7       29.65F                  
FLIPPIN        CLOUDY    54  48  82 E6        29.62F                  
MTN HOME       LGT RAIN  54  53  97 SE5       29.61F                  
$$

ARZ040-041-231500-
WEST CENTRAL ARKANSAS
  
CITY           SKY/WX    TMP DP  RH WIND       PRES   REMARKS
MENA           CLOUDY    61  59  94 S3        29.59F                  
MOUNT IDA      CLOUDY    59  56  89 VRB3      29.57F                  
$$

ARZ009-017-025-026-028-231500-
NORTHEAST ARKANSAS
  
CITY           SKY/WX    TMP DP  RH WIND       PRES   REMARKS
CORNING        LGT RAIN  55  55 100 SE8       29.70F                  
JONESBORO      CLOUDY    58  56  93 SE12      29.69F                  
NEWPORT        LGT RAIN  57  57 100 SE16      29.67F FOG              
WALNUT RIDGE   CLOUDY    55  52  88 SE8       29.67F                  
BLYTHEVILLE    CLOUDY    66  55  67 SE16G25   29.72F                  
$$

ARZ022-023-033-042-044-231500-
CENTRAL ARKANSAS
  
CITY           SKY/WX    TMP DP  RH WIND       PRES   REMARKS
LITTLE ROCK    LGT RAIN  59  55  87 SE12      29.63F FOG              
N LITTLE ROCK  CLOUDY    57  57 100 S10G17    29.63F                  
JACKSONVILLE   LGT RAIN  58  58  99 S9        29.63F FOG              
SEARCY         LGT RAIN  58  57  97 SE9       29.66F                  
HOT SPRINGS    RAIN      59  58  96 SE6       29.61F FOG              
RUSSELLVILLE   CLOUDY    57  56  96 VRB6      29.59F                  
CLINTON        LGT RAIN  55  55 100 E3        29.64F                  
$$

ARZ036-231500-
EAST ARKANSAS
  
CITY           SKY/WX    TMP DP  RH WIND       PRES   REMARKS
WEST MEMPHIS   CLOUDY    59  57  93 SE16      29.69F                  
$$

ARZ050-053-066-070-073-231500-
SOUTHWEST ARKANSAS
  
CITY           SKY/WX    TMP DP  RH WIND       PRES   REMARKS
ARKADELPHIA    LGT RAIN  60  60 100 S5        29.61F FOG              
CAMDEN         LGT RAIN  59  57  94 NE5       29.61F                  
TEXARKANA      LGT RAIN  61  61 100 SE3       29.59F FOG              
EL DORADO      LGT RAIN  61  60  97 SE6       29.61F                  
DE QUEEN       CLOUDY    59  58  96 CALM      29.58F FOG              
$$

ARZ056-057-069-231500-
SOUTHEAST ARKANSAS
  
CITY           SKY/WX    TMP DP  RH WIND       PRES   REMARKS
PINE BLUFF     RAIN      58  56  93 SE12      29.64F FOG              
STUTTGART      CLOUDY    57  55  94 SE14      29.66F                  
MONTICELLO     LGT RAIN  60  58  92 E8        29.62F                  

$$




USA.gov is the U.S. government's official web portal to all federal, state and local government web resources and services.